Weather in Solyanka

Russia / Tyumen Oblast     59°26′02″N   68°58′40″E
temp.,
°C
wind,
m/s
gust,
m/s
humid.,
%
clouds,
%
prec.,
mm/h
press.,
hPa
HPBL,
m
19 september, sun
sun1923:00+3w5981100 0.1 9981064
02:00+2w51096100 0.1 997764
05:00+1w51298100 2.1 996746
08:00+1w51197100 1.4 996612
11:00+2wnw51197100 1.9 996593
14:00+3wnw51096100 0.4 997958
17:00+2wnw61297100 1.9 9981002
20:00+2wnw61397100 1.1 10001084
20 september, mon
mon2023:00+2nw61297100 1.5 10021055
02:00+2nnw51198100 0.7 10051023
05:00+2nnw5109299 0.9 1009853
08:00+2nnw51198100 0.2 1011915
11:00+4nnw51093100 0.4 1014868
14:00+3nnw51097100 0.4 1017847
17:00+3nnw5997100 0.6 1019859
20:00+2nnw4998100 0.3 1020826
21 september, tue
tue2123:00+1nnw499796 0.4 1022735
02:00−1nw4109599 0.1 1023336
05:00+1nw4993100 0.1 1024493
08:00+2nw3892100 0.0 1024541
11:00+3nw3689100 0.1 1023781
14:00+5wnw3783100 0.2 1023946
17:00+5wnw3885100 0.4 1022606
20:00+3w278985 0.0 1022521
22 september, wed
wed2223:00+3wnw3893100 0.0 1021712
02:00+3wnw3798100 0.1 1020773
05:00+3nw3798100 0.3 1020623
08:00+3nnw4795100 0.3 1021723
11:00+4nnw378780 0.4 1022746
14:00+5nnw3686100 0.1 1023786
17:00+3n389028 0.3 1024604
20:000nnw229358 0.0 102516
23 september, thu
thu2323:000nw229571 0.0 102623
02:00+2nw2589100 0.0 1027128
05:000nnw229668 0.0 102844
08:00+3nw279198 0.0 1029281
11:00+5wnw378597 0.0 1030694
14:00+7nw3683100 0.0 1030698
17:00+6nnw2391100 0.0 103197
20:00+5nw1194100 0.0 103222